Flag for Pakistan Weather past 2 weeks in Rawalpindi, Pakistan

Now
81 °F

Passing clouds.


Feels Like: 83 °F
Forecast: 71 / 98 °F
Wind: 9 mph from Northeast

Location: Islamabad Airport

Current Time: Aug 31, 2014 at 12:03:01 AM

Latest Report: Aug 30, 2014 at 11:00 PM


Visibility: 4 mi

Pressure: 29.68 "Hg

Humidity: 66%

Dew point: 68 °F

Location of RawalpindiLocation

Historic Weather in Rawalpindi — Graph

°F

Rawalpindi temperature yesterday

Maximum temperature yesterday: 95 °F (at 2:00 PM)
Minimum temperature yesterday: 75 °F (at 6:00 AM)
Average temperature yesterday: 85 °F

Past Weeks' High & Low Weather Summary

 TemperatureHumidityPressure
High100 °F (Aug 18, 10:00 PM)94% (Aug 15, 11:00 PM)29.86 "Hg (Aug 15, 11:00 PM)
Low68 °F (Aug 22, 11:00 PM)37% (Aug 18, 10:00 PM)29.56 "Hg (Aug 15, 10:00 PM)
Average83 °F66%29.74 "Hg
* Reported Aug 15 10:00 PM — Aug 30 10:00 PM, Rawalpindi, Weather by CustomWeather, © 2014

Note: Actual official high and low records may vary slightly from our data, if they occured in-between our weather recording intervals... More about our weather records

Advertising

Rawalpindi weather history for previous 24 hours

 ConditionsComfort  
Time TempWeatherWind HumidityBarometerVisibility
10:00 PM
Aug 30
81 °FPassing clouds.9 mph70%29.68 "Hg5 mi
9:00 PM82 °FPassing clouds.9 mph66%29.68 "HgN/A
8:00 PM86 °FPassing clouds.9 mph59%29.68 "HgN/A
7:00 PM90 °FPassing clouds.12 mph49%29.68 "HgN/A
6:00 PM91 °FPassing clouds.5 mph46%29.65 "HgN/A
5:00 PM93 °FPassing clouds.5 mph44%29.65 "HgN/A
4:00 PM93 °FPassing clouds.7 mph44%29.65 "HgN/A
3:00 PM95 °FPassing clouds.9 mph39%29.68 "HgN/A
2:00 PM95 °FPassing clouds.12 mph39%29.71 "HgN/A
1:00 PM91 °FPassing clouds.5 mph46%29.77 "HgN/A
12:00 PM90 °FPassing clouds.5 mph52%29.80 "HgN/A
11:00 AM88 °FPassing clouds.5 mph55%29.80 "Hg4 mi
10:00 AM86 °FPassing clouds.5 mph62%29.83 "Hg4 mi
9:00 AM84 °FPassing clouds.5 mph62%29.83 "Hg4 mi
8:00 AM81 °FPassing clouds.5 mph66%29.83 "Hg4 mi
7:00 AM77 °FPassing clouds.5 mph74%29.80 "Hg4 mi
6:00 AM75 °FPassing clouds.7 mph74%29.80 "Hg4 mi
5:00 AM77 °FPassing clouds.7 mph74%29.77 "Hg4 mi
4:00 AM77 °FPassing clouds.5 mph79%29.77 "Hg4 mi
3:00 AM77 °FPassing clouds.5 mph79%29.77 "Hg4 mi
2:00 AM79 °FPassing clouds.5 mph74%29.77 "Hg4 mi
12:00 AM79 °FPassing clouds.5 mph74%29.77 "Hg4 mi
Weather by CustomWeather, © 2014

See weather overviewHow to use our weather pages